Flag for Germany Weather past 2 weeks in Eberswalde, Brandenburg, Germany

Now
39 °F

Partly sunny.


Feels Like: 33 °F
Forecast: 30 / 39 °F
Wind: 9 mph from West

Location: Berlin-Tegel

Current Time: Jan 27, 2015 at 11:44:49 AM

Latest Report: Jan 27, 2015 at 11:20 AM


Visibility: N/A

Pressure: 29.92 "Hg

Humidity: 87%

Dew point: 36 °F

Location of EberswaldeLocation

Historic Weather in Eberswalde — Graph

°F

Eberswalde temperature yesterday

Maximum temperature yesterday: 41 °F (at 3:20 PM)
Minimum temperature yesterday: 34 °F (at 12:20 AM)
Average temperature yesterday: 36 °F

Past Weeks' High & Low Weather Summary

 TemperatureHumidityPressure
High54 °F (Jan 13, 1:20 PM)100% (Jan 17, 1:20 AM)30.30 "Hg (Jan 17, 1:20 AM)
Low27 °F (Jan 19, 7:20 AM)51% (Jan 13, 6:50 PM)29.56 "Hg (Jan 15, 6:50 PM)
Average37 °F86%29.95 "Hg
* Reported Jan 12 10:20 AM — Jan 27 10:50 AM, Eberswalde, Weather by CustomWeather, © 2014

Note: Actual official high and low records may vary slightly from our data, if they occured in-between our weather recording intervals... More about our weather records

Advertising

Eberswalde weather history for previous 24 hours

 ConditionsComfort  
Time TempWeatherWind HumidityBarometerVisibility
10:50 AM
Jan 27
37 °FDrizzle. Partly sunny.9 mph93%29.92 "HgN/A
10:20 AM37 °FLight rain. Partly sunny.10 mph93%29.89 "HgN/A
9:50 AM37 °FLight rain. Partly sunny.9 mph93%29.89 "HgN/A
9:20 AM37 °FLight rain. Partly sunny.10 mph93%29.89 "HgN/A
8:50 AM37 °FLight rain. Broken clouds.10 mph93%29.89 "HgN/A
8:20 AM37 °FLight rain. Broken clouds.10 mph93%29.86 "HgN/A
7:50 AM37 °FLight rain. Partly cloudy.9 mph93%29.86 "HgN/A
7:20 AM37 °FLight rain. Partly cloudy.9 mph93%29.86 "HgN/A
6:50 AM37 °FLight rain. Partly cloudy.10 mph93%29.86 "HgN/A
6:20 AM37 °FLight rain. Partly cloudy.10 mph93%29.83 "HgN/A
5:50 AM37 °FLight rain. Passing clouds.10 mph93%29.83 "HgN/A
5:20 AM37 °FLight rain. Partly cloudy.13 mph93%29.83 "HgN/A
4:50 AM37 °FLight rain. Passing clouds.10 mph93%29.83 "HgN/A
4:20 AM37 °FLight rain. Passing clouds.9 mph93%29.83 "HgN/A
3:50 AM37 °FLight rain. Passing clouds.10 mph93%29.83 "HgN/A
3:20 AM37 °FPassing clouds.12 mph93%29.83 "Hg5 mi
2:50 AM37 °FPassing clouds.14 mph93%29.83 "Hg5 mi
2:20 AM39 °FPassing clouds.10 mph93%29.80 "Hg4 mi
1:50 AM39 °FPassing clouds.12 mph93%29.80 "Hg5 mi
1:20 AM39 °FPassing clouds.12 mph93%29.80 "Hg5 mi
12:50 AM39 °FPassing clouds.10 mph93%29.80 "Hg5 mi
12:20 AM37 °FLight rain. Passing clouds.9 mph100%29.80 "Hg4 mi
11:50 PM
Jan 26
36 °FLight rain. Passing clouds.9 mph100%29.80 "Hg3 mi
11:20 PM36 °FLight rain. Passing clouds.8 mph100%29.80 "Hg3 mi
10:50 PM36 °FLight rain. Passing clouds.8 mph100%29.83 "Hg3 mi
10:20 PM36 °FRain. Passing clouds.9 mph93%29.83 "Hg3 mi
9:50 PM36 °FLight rain. Partly cloudy.9 mph100%29.83 "Hg3 mi
9:20 PM36 °FLight rain. Partly cloudy.9 mph93%29.86 "Hg3 mi
8:50 PM36 °FLight rain. Passing clouds.10 mph93%29.86 "Hg3 mi
8:20 PM36 °FPartly cloudy.10 mph93%29.89 "Hg4 mi
7:50 PM36 °FPassing clouds.12 mph93%29.89 "Hg4 mi
7:20 PM37 °FLight rain. Passing clouds.12 mph87%29.89 "HgN/A
6:50 PM37 °FLight rain. Passing clouds.10 mph93%29.92 "HgN/A
6:20 PM37 °FLight rain. Passing clouds.13 mph87%29.92 "HgN/A
5:50 PM39 °FLight rain. Passing clouds.13 mph81%29.95 "HgN/A
5:20 PM39 °FPassing clouds.13 mph81%29.95 "HgN/A
4:50 PM39 °FPassing clouds.12 mph81%29.98 "HgN/A
4:20 PM39 °FPartly sunny.15 mph81%29.98 "HgN/A
3:50 PM41 °FPartly sunny.13 mph76%30.01 "HgN/A
3:20 PM41 °FPartly sunny.10 mph81%30.01 "HgN/A
2:50 PM39 °FPartly sunny.10 mph81%30.04 "HgN/A
2:20 PM39 °FPartly sunny.9 mph81%30.04 "HgN/A
1:50 PM39 °FPartly sunny.10 mph81%30.07 "HgN/A
1:20 PM39 °FPartly sunny.12 mph81%30.07 "HgN/A
12:50 PM39 °FPartly sunny.12 mph87%30.09 "HgN/A
12:20 PM39 °FPartly sunny.10 mph81%30.12 "HgN/A
11:50 AM37 °FPartly sunny.12 mph87%30.12 "HgN/A
11:20 AM37 °FPartly sunny.12 mph87%30.15 "Hg5 mi
Weather by CustomWeather, © 2014

See weather overviewHow to use our weather pages